Regional Weather Roundup
Issued by NWS

Home | Current Version | Previous Version | Text Only | Print | Product List | Glossary On
Versions: 1 2 3 4 5 6 7 8 9 10 11 12 13 14 15 16 17 18 19 20 21 22 23 24 25 26 27 28 29 30 31 32 33 34 35 36 37 38 39 40 41 42 43 44 45 46 47 48 49 50
000
ASUS43 KMPX 262210
RWRMN
WEATHER ROUNDUP FOR MINNESOTA
NATIONAL WEATHER SERVICE TWIN CITIES/CHANHASSEN MN
500 PM CDT SUN MAR 26 2017


NOTE: "FAIR" INDICATES FEW OR NO CLOUDS BELOW 12,000 FEET WITH NO
SIGNIFICANT WEATHER AND/OR OBSTRUCTIONS TO VISIBILITY. N/A MEANS
CURRENT SKY AND/OR WEATHER CONDITIONS ARE NOT AVAILABLE.

MNZ060>063-068>070-262300-
   Twin Cities Metro

CITY           SKY/WX    TMP DP  RH WIND       PRES   REMARKS
TWIN CITIES    CLOUDY    44  36  73 N7        29.90S
ST PAUL        CLOUDY    43  38  82 MISG      29.91S
CRYSTAL        CLOUDY    43  35  73 NE6       29.90S
BLAINE         CLOUDY    43  39  87 N6        29.91R
LAKEVILLE      CLOUDY    41  39  93 N6        29.90R
EDEN PRAIRIE   CLOUDY    44  37  76 N3        29.89S
SOUTH ST PAUL  CLOUDY    43  38  83 N6        29.90S
LAKE ELMO      CLOUDY    41  37  87 N6        29.91S
$$
MNZ001>005-007-008-013>017-022>024-027-028-262300-
   Northwest Minnesota

CITY           SKY/WX    TMP DP  RH WIND       PRES   REMARKS
BEMIDJI        CLOUDY    46  33  60 E6        29.92S
HALLOCK        SUNNY     41  37  87 CALM      29.95S
ROSEAU         SUNNY     45  39  81 NW3       29.93F
WARROAD        CLOUDY    45  37  76 W6        29.94S
THIEF RVR FALL CLOUDY   N/A N/A N/A VRB5      29.95F
CROOKSTON      CLOUDY    45  39  81 W5        29.95F
FOSSTON        CLOUDY    50  36  57 NW3       29.93S
DETROIT LAKES  MOSUNNY   46  36  66 NW6       29.93F
MOORHEAD       CLOUDY    45  36  70 CALM      29.95F
PARK RAPIDS    CLOUDY    47  30  51 CALM      29.91S
MAHNOMEN       CLOUDY    46  36  67 CALM      29.92S
$$
MNZ006-009>011-018-025>026-262300-
   North Central Minnesota

CITY           SKY/WX    TMP DP  RH WIND       PRES   REMARKS
BAUDETTE       CLOUDY    42  34  73 NW12      29.93R
FLAG ISLAND    SUNNY     36  32  87 SE7       29.93S
INTL FALLS     CLOUDY    47  33  58 VRB3      29.92S
WASKISH        CLOUDY    45  34  65 W3        29.93S
BIG FORK       MOSUNNY   48  32  53 NW3       29.91S
LONGVILLE      CLOUDY    43  32  65 W3        29.92S
GRAND RAPIDS   CLOUDY    43  33  68 N6        29.93S
CRANE LAKE     MOSUNNY   45  30  57 N3        29.93S
ORR            CLOUDY    46  28  49 CALM      29.88F
COOK           CLOUDY    46  32  57 CALM      29.91S
WALKER         FAIR      43  32  65 CALM      29.92S
$$
MNZ012-019>021-037-262300-
   Northeast Minnesota

CITY           SKY/WX    TMP DP  RH WIND       PRES   REMARKS
DULUTH         FOG       34  33  96 SE5       29.91S VSB 1/8 WCI  30
ELY            CLOUDY    39  30  70 E3        29.91S
HIBBING        CLOUDY    41  32  70 CALM      29.90F
EVELETH        CLOUDY    40  30  68 CALM      29.92S
DULUTH HARBOR  CLOUDY    34  34 100 CALM      29.96R
TWO HARBORS    CLOUDY    37  32  81 E3        29.91S
SILVER BAY     CLOUDY    36  34  93 CALM      29.91S
GRAND MARAIS     N/A     35  34  96 CALM      29.94S
G MARAIS ARPRT LGT RAIN  32  28  86 NE3       29.90S
$$
MNZ029>031-032-039>041-046>048-054>057-064-262300-
   West Central Minnesota

CITY           SKY/WX    TMP DP  RH WIND       PRES   REMARKS
FERGUS FALLS   CLOUDY    45  36  70 NW8       29.97S
WHEATON        CLOUDY    46  36  66 W6        29.96S
MORRIS         CLOUDY    46  37  71 NW9       29.93R
ALEXANDRIA     CLOUDY    46  35  65 VRB3      29.93R
ELBOW LAKE     CLOUDY    44  36  71 W3        29.93S
WADENA         CLOUDY    46  36  66 NW7       29.92S
GLENWOOD       CLOUDY    46  36  66 N6        29.93R
APPLETON       CLOUDY    48  37  66 CALM      29.93S
BENSON         CLOUDY    50  34  53 N5        29.94S
ORTONVILLE     CLOUDY    45  37  76 NW7       29.94S
MADISON        CLOUDY    48  39  71 NW6       29.94S
WILLMAR        CLOUDY    46  37  71 NE3       29.94R
$$
MNZ033>034-036-042>043-049>051-058-059-262300-
   Central Minnesota

CITY           SKY/WX    TMP DP  RH WIND       PRES   REMARKS
ST CLOUD       CLOUDY    40  35  83 N7        29.93R
SAUK CENTRE    CLOUDY    45  35  67 N6        29.92R
PAYNESVILLE      N/A     42  39  89 N5        29.93R
AITKIN         CLOUDY    45  32  61 N3        29.91R
PINE RIVER     CLOUDY    45  34  65 N3        29.95S
BRAINERD       CLOUDY    44  33  65 N7        29.92S
STAPLES        CLOUDY    46  34  61 CALM      29.91F
LONG PRAIRIE   CLOUDY    45  34  65 NW5       29.92S
LITTLE FALLS   CLOUDY    43  32  65 CALM      29.93R
LITCHFIELD     CLOUDY    43  37  81 N3        29.93R
BUFFALO        CLOUDY    40  37  89 NW6       29.93R FOG
MAPLE LAKE     DRIZZLE   40  39  93 N5        29.93R
HUTCHINSON     CLOUDY    41  38  89 NW7       29.94R
$$
MNZ037-044-045-052-053-262300-
   East Central Minnesota

CITY           SKY/WX    TMP DP  RH WIND       PRES   REMARKS
PRINCETON      DRIZZLE   39  37  93 NW5       29.93R
MORA           LGT RAIN  36  32  87 CALM      29.93S
CAMBRIDGE      CLOUDY    41  36  81 N3        29.90S
RUSH CITY      RAIN      39  36  90 N6        29.92R
MOOSE LAKE     CLOUDY    36  32  87 NE3       29.91R
CLOQUET        FOG       34  32  93 E5        29.92R VSB 3/4 WCI  30
MCGREGOR       CLOUDY    39  34  81 NE3       29.92S
$$
MNZ071>073-080-081-089-090-097-098-262300-
   Southwest Minnesota

CITY           SKY/WX    TMP DP  RH WIND       PRES   REMARKS
MONTEVIDEO     CLOUDY    46  37  71 N6        29.95R
GRANITE FALLS  CLOUDY    46  38  76 NW6       29.94S
CANBY          CLOUDY    44  38  82 CALM      29.95R
MARSHALL       CLOUDY    43  38  82 NW8       29.93S
REDWOOD FALLS  CLOUDY    45  36  70 N3        29.92R
OLIVIA         CLOUDY    43  36  75 N6        29.92S
PIPESTONE      CLOUDY    43  36  75 N5        29.92R
WINDOM         PTSUNNY   43  37  81 NW13      29.91S
WORTHINGTON    CLOUDY    42  37  82 N14       29.91F
JACKSON        CLOUDY    41  37  87 NW8       29.92R
TRACY          CLOUDY    42  38  86 N9        29.92S
SLAYTON        CLOUDY    40  37  90 NW8       29.93R
$$
MNZ065>067-074>077-082>085-091>093-262300-
   South Central Minnesota

CITY           SKY/WX    TMP DP  RH WIND       PRES   REMARKS
MANKATO        CLOUDY    43  37  81 N5        29.91S
NEW ULM        CLOUDY    43  36  75 CALM      29.92S
ST JAMES       CLOUDY    43  37  81 CALM      29.93S
FAIRMONT       CLOUDY    41  38  89 NW9       29.92R FOG
GLENCOE        CLOUDY    41  40  95 NW9       29.92R FOG
FARIBAULT      CLOUDY    43  39  87 N3        29.91R FOG
OWATONNA       CLOUDY    43  39  87 N5        29.90R FOG
WASECA         CLOUDY    41  37  87 N7        29.91S
ALBERT LEA     CLOUDY    41  41 100 N7        29.89R
$$
MNZ078>079-086>088-094>096-262300-
   Southeast Minnesota

CITY           SKY/WX    TMP DP  RH WIND       PRES   REMARKS
ROCHESTER      CLOUDY    39  39 100 N9        29.88R
RED WING       CLOUDY    43  37  81 N5        29.89R
STANTON        CLOUDY    42  39  88 N6        29.89S
DODGE CENTER   CLOUDY    39  39 100 N8        29.88R
WINONA         CLOUDY    43  37  81 NW7       29.89R
AUSTIN         CLOUDY    43  39  87 NW7       29.89R FOG
PRESTON        CLOUDY    40  38  91 N7        29.87R
$$
ABBREVIATIONS USED IN REMARKS
   TC - TEMPERATURES IN CELSIUS
  WCI - WIND CHILL INDEX
   HX - HEAT INDEX
  VSB - VISIBILITY
$$




USA.gov is the U.S. government's official web portal to all federal, state and local government web resources and services.